Flag for Italy Weather past 2 weeks in Naples, Italy

Now
54 °F

Partly sunny.


Feels Like: 53 °F
Forecast: 51 / 62 °F
Wind: 3 mph from North

Location: Naples / Capodichino


UV Index: 3 (Moderate)

Visibility: N/A


Pressure: 29.80 "Hg

Humidity: 54%

Dew point: 37 °F

Location of NaplesLocation

Historic Weather in Naples

°F

Naples temperature yesterday

Maximum temperature yesterday: 61 °F (at 1:20 PM)
Minimum temperature yesterday: 48 °F (at 12:50 AM)
Average temperature yesterday: 53 °F

Past Weeks' High & Low Weather Summary

 TemperatureHumidityPressure
High73 °F (Apr 7, 2:20 PM)94% (Apr 4, 12:20 PM)30.15 "Hg (Apr 4, 12:20 PM)
Low45 °F (Apr 15, 8:50 PM)23% (Apr 10, 2:50 PM)29.62 "Hg (Apr 4, 5:50 AM)
Average59 °F65%29.95 "Hg
* Reported Apr 3 9:20 AM — Apr 18 9:20 AM, Naples, Weather by CustomWeather, © 2014

Note: Actual official high and low records may vary slightly from our data, if they occured in-between our weather recording intervals... More about our weather records

Advertising

Historic Weather Conditions — Data for Previous 24 hours

 ConditionsComfort  
Time TempWeatherWind HumidityBarometerVisibility
9:20 AM
Apr 18
55 °FPartly sunny.2 mph51%29.83 "HgN/A
8:50 AM54 °FPartly sunny.5 mph54%29.83 "HgN/A
8:20 AM54 °FPartly sunny.1 mph54%29.83 "HgN/A
7:50 AM52 °FPartly sunny.No wind62%29.83 "HgN/A
7:20 AM48 °FPartly sunny.2 mph71%29.83 "HgN/A
6:50 AM48 °FPassing clouds.5 mph66%29.83 "HgN/A
6:20 AM50 °FPassing clouds.3 mph62%29.83 "HgN/A
5:50 AM50 °FPassing clouds.2 mph62%29.83 "HgN/A
5:20 AM48 °FClear.20 mph66%29.83 "HgN/A
4:50 AM48 °FPassing clouds.3 mph66%29.83 "HgN/A
4:20 AM48 °FPassing clouds.3 mph66%29.86 "HgN/A
3:50 AM48 °FPassing clouds.1 mph66%29.83 "HgN/A
3:20 AM50 °FPassing clouds.1 mph58%29.86 "HgN/A
2:50 AM50 °FPassing clouds.1 mph62%29.86 "HgN/A
2:20 AM48 °FPassing clouds.2 mph66%29.86 "HgN/A
1:50 AM46 °FPassing clouds.3 mph66%29.86 "HgN/A
12:50 AM48 °FPassing clouds.1 mph62%29.89 "HgN/A
12:20 AM48 °FPassing clouds.No wind66%29.89 "HgN/A
11:50 PM
Apr 17
50 °FPassing clouds.3 mph62%29.89 "HgN/A
11:20 PM50 °FPassing clouds.3 mph62%29.89 "HgN/A
10:50 PM52 °FPassing clouds.3 mph58%29.89 "HgN/A
10:20 PM50 °FPassing clouds.5 mph62%29.89 "HgN/A
9:50 PM50 °FPassing clouds.6 mph62%29.89 "HgN/A
9:20 PM52 °FPassing clouds.6 mph58%29.89 "HgN/A
8:50 PM52 °FPassing clouds.5 mph58%29.89 "HgN/A
8:20 PM52 °FScattered clouds.3 mph58%29.89 "HgN/A
7:50 PM54 °FPartly sunny.8 mph51%29.89 "HgN/A
6:50 PM54 °FPartly sunny.7 mph47%29.89 "HgN/A
6:20 PM55 °FPartly sunny.7 mph47%29.89 "HgN/A
5:50 PM55 °FPartly sunny.8 mph47%29.89 "HgN/A
5:20 PM57 °FPartly sunny.8 mph44%29.89 "HgN/A
4:50 PM57 °FPartly sunny.13 mph41%29.89 "HgN/A
4:20 PM59 °FPartly sunny.13 mph36%29.89 "HgN/A
3:50 PM59 °FDrizzle. Partly sunny.14 mph34%29.89 "HgN/A
3:20 PM59 °FDrizzle. Partly sunny.7 mph34%29.86 "HgN/A
2:50 PM59 °FPartly sunny.5 mph34%29.89 "HgN/A
2:20 PM61 °FPartly sunny.6 mph29%29.89 "HgN/A
1:50 PM61 °FPartly sunny.6 mph34%29.89 "HgN/A
1:20 PM61 °FScattered clouds.5 mph34%29.89 "HgN/A
12:50 PM59 °FPartly sunny.6 mph34%29.89 "HgN/A
12:20 PM59 °FPartly sunny.7 mph34%29.92 "HgN/A
11:50 AM59 °FPartly sunny.8 mph36%29.92 "HgN/A
11:20 AM57 °FPartly sunny.7 mph41%29.95 "HgN/A
10:50 AM55 °FPassing clouds.9 mph47%29.95 "HgN/A
10:20 AM57 °FPassing clouds.12 mph39%29.95 "HgN/A
Weather by CustomWeather, © 2014

See weather overview